Boise, ID

5:15 PM MDT on April 24, 2017 (GMT -0600)
Boise Air Term

Weather History for KBOI - March, 2013

Change the Weather History Date:

Wednesday, March 20, 2013

  Actual Average Record
Temperature  
Mean Temperature 50 °F 46 °F  
Max Temperature 59 °F 56 °F 74 °F (1877)
Min Temperature 40 °F 35 °F 16 °F (1882)
Degree Days  
Heating Degree Days 15 19  
Month to date heating degree days 402 436  
Since 1 July heating degree days 4499 4595  
Cooling Degree Days 0 0  
Month to date cooling degree days 0 0  
Year to date cooling degree days 0 0  
Moisture  
Dew Point 39 °F    
Average Humidity 60    
Maximum Humidity 100    
Minimum Humidity 19    
Precipitation  
Precipitation 0.25 in 0.05 in 1.60 in (1981)
Month to date precipitation 0.27 0.88  
Year to date precipitation 2.11 3.11  
Snow  
Snow 0.00 in 0.10 in 1.50 in (1953)
Month to date snowfall T 1.0  
Since 1 July snowfall 15.7 18.6  
Snow Depth 0.00 in    
Sea Level Pressure  
Sea Level Pressure 29.79 in    
Wind  
Wind Speed 14 mph (SE)    
Max Wind Speed 32 mph    
Max Gust Speed 39 mph    
Visibility 10 miles    
Events Rain , Thunderstorm    
T = Trace of Precipitation, MM = Missing Value Source: NWS Daily Summary

Daily Weather History Graph

Daily Weather History Graph

Search for Another Location

Airport or City:

Trip Planner

Search our weather history database for the weather conditions in past years. The results will help you decide how hot, cold, wet, or windy it might be!

Date:

Astronomy

Mar. 20, 2013 Rise Set
Actual Time 7:47 AM MDT 7:57 PM MDT
Civil Twilight 7:18 AM MDT 8:26 PM MDT
Nautical Twilight 6:45 AM MDT 8:59 PM MDT
Astronomical Twilight 6:11 AM MDT 9:34 PM MDT
Moon 1:27 PM MDT (3/20) 3:40 AM MDT (3/20)
Length of Visible Light 13h 07m
Length of Day
12h 10m
First Quarter, 60% of the Moon is Illuminated
Mar 20
First Quarter
Mar 27
Full
Apr 2
Last Quarter
Apr 10
New
Apr 18
First Quarter

Hourly Weather History & Observations

Time (MDT) Temp. Windchill Dew Point Humidity Pressure Visibility Wind Dir Wind Speed Gust Speed Precip Events Conditions
12:53 AM 51.1 °F - 10.0 °F 19% 29.91 in 10.0 mi South 11.5 mph - N/A   Overcast
1:53 AM 52.0 °F - 12.0 °F 20% 29.89 in 10.0 mi South 9.2 mph - N/A   Overcast
2:53 AM 50.0 °F - 34.0 °F 54% 29.90 in 6.0 mi East 12.7 mph 21.9 mph 0.01 in Rain Rain
3:53 AM 45.0 °F 38.9 °F 44.1 °F 97% 29.89 in 7.0 mi ESE 12.7 mph - 0.08 in Rain Light Rain
4:53 AM 45.0 °F 38.5 °F 44.1 °F 97% 29.86 in 9.0 mi ESE 13.8 mph 19.6 mph 0.07 in Rain Light Rain
5:53 AM 45.0 °F 38.9 °F 43.0 °F 93% 29.84 in 10.0 mi ESE 12.7 mph - 0.02 in   Overcast
6:53 AM 45.0 °F 38.5 °F 43.0 °F 93% 29.85 in 10.0 mi ESE 13.8 mph - 0.00 in Rain Light Rain
7:53 AM 45.0 °F 37.9 °F 39.0 °F 80% 29.85 in 10.0 mi ESE 16.1 mph - 0.00 in   Overcast
8:53 AM 46.0 °F 39.6 °F 39.0 °F 76% 29.85 in 10.0 mi ESE 15.0 mph - N/A   Overcast
9:53 AM 46.9 °F - 39.0 °F 74% 29.85 in 10.0 mi SE 15.0 mph 21.9 mph 0.00 in   Overcast
10:53 AM 46.0 °F 40.6 °F 41.0 °F 83% 29.87 in 9.0 mi SE 11.5 mph - 0.01 in Rain Light Rain
11:53 AM 52.0 °F - 44.1 °F 74% 29.83 in 10.0 mi ESE 20.7 mph - 0.00 in   Partly Cloudy
12:53 PM 55.0 °F - 43.0 °F 64% 29.80 in 10.0 mi SE 15.0 mph 24.2 mph N/A   Overcast
1:53 PM 57.0 °F - 43.0 °F 59% 29.76 in 10.0 mi ESE 16.1 mph - N/A   Overcast
2:53 PM 55.9 °F - 41.0 °F 57% 29.74 in 10.0 mi SE 18.4 mph 24.2 mph 0.00 in Rain Light Rain
3:53 PM 59.0 °F - 41.0 °F 51% 29.69 in 10.0 mi SSE 16.1 mph 21.9 mph 0.00 in Rain Light Rain
4:44 PM 55.4 °F - 42.8 °F 63% 29.69 in 10.0 mi South 11.5 mph 27.6 mph 0.02 in Rain Light Rain
4:53 PM 55.0 °F - 43.0 °F 64% 29.68 in 10.0 mi SSE 10.4 mph - 0.02 in   Scattered Clouds
5:04 PM 55.4 °F - 42.8 °F 63% 29.68 in 10.0 mi ESE 11.5 mph - N/A Thunderstorm Scattered Clouds
5:19 PM 55.4 °F - 44.6 °F 67% 29.67 in 10.0 mi South 12.7 mph 16.1 mph 0.00 in Rain Light Rain
5:53 PM 55.9 °F - 44.1 °F 64% 29.65 in 9.0 mi South 10.4 mph - 0.00 in Rain Light Rain
6:12 PM 55.4 °F - 44.6 °F 67% 29.67 in 7.0 mi Calm Calm - 0.00 in Rain , Thunderstorm Light Thunderstorms and Rain
6:43 PM 53.6 °F - 39.2 °F 58% 29.69 in 10.0 mi NW 24.2 mph 33.4 mph 0.01 in   Overcast
6:50 PM 51.8 °F - 39.2 °F 62% 29.70 in 10.0 mi NW 28.8 mph 38.0 mph 0.01 in Rain Light Rain
6:53 PM 52.0 °F - 39.9 °F 63% 29.70 in 10.0 mi NW 31.1 mph 38.0 mph 0.01 in Rain Light Rain
7:53 PM 48.9 °F - 37.9 °F 66% 29.76 in 10.0 mi NW 16.1 mph 21.9 mph 0.00 in   Overcast
8:53 PM 46.9 °F - 39.0 °F 74% 29.77 in 10.0 mi North 4.6 mph 18.4 mph 0.01 in Rain Light Rain
9:53 PM 46.0 °F - 45.0 °F 96% 29.80 in 10.0 mi Calm Calm - 0.02 in Rain Light Rain
10:27 PM 46.4 °F 40.7 °F 35.6 °F 66% 29.79 in 10.0 mi WNW 12.7 mph - 0.00 in Rain Light Rain
10:53 PM 46.0 °F 37.2 °F 36.0 °F 68% 29.81 in 10.0 mi NW 26.5 mph 34.5 mph 0.00 in   Mostly Cloudy
11:53 PM 42.1 °F 36.1 °F 30.9 °F 65% 29.86 in 10.0 mi NNW 10.4 mph - N/A   Scattered Clouds